Regional Weather Roundup
Issued by NWS Charleston, SC

Current Version | Previous Version | Graphics & Text | Print | Product List | Glossary On
Versions: 1 2 3 4 5 6 7 8 9 10 11 12 13 14 15 16 17 18 19 20 21 22 23 24 25 26 27 28 29 30 31 32 33 34 35 36 37 38 39 40 41 42 43 44 45 46 47 48 49 50
000
ASUS42 KCHS 272327
RWRCHS

REGIONAL WEATHER ROUNDUP
NATIONAL WEATHER SERVICE CHARLESTON SC
700 PM EDT MON APR 27 2015

NOTE: "FAIR" INDICATES FEW OR NO CLOUDS BELOW 12,000 FEET WITH NO
SIGNIFICANT WEATHER AND/OR OBSTRUCTIONS TO VISIBILITY.

NOT ALL STATIONS ARE QUALITY CONTROLLED BY THE NATIONAL
WEATHER SERVICE. USE DATA WITH CAUTION...ESPECIALLY
DEWPOINT OBSERVATIONS.

SCZ027-030-031-034>040-042>050-280000-
...SOUTHEAST SOUTH CAROLINA...

CITY           SKY/WX    TMP DP  RH WIND       PRES   REMARKS
N CHARLESTON   PTSUNNY   70  46  42 N3        29.83S
WATERFRONT PRK   N/A     70 N/A N/A N9          N/A
MOUNT PLEASANT FAIR      68  48  49 MISG      29.83S
PINOPOLIS      NOT AVBL
MONCKS CORNER  FAIR      66  52  59 CALM      29.83R
SUMMERVILLE    FAIR      68  55  64 CALM      29.84R
BEAUFORT MCAS  PTSUNNY   71  51  49 VRB3      29.84R
BEAUFORT ARPT  FAIR      70  54  56 CALM      29.83S
HILTON HEAD IS MOSUNNY   72  52  49 N7        29.85R
WALTERBORO     MOCLDY    68  48  49 N3        29.83F
ALLENDALE      FAIR      68  54  60 CALM      29.81F

...SOUTHERN MIDLANDS AND PEE DEE...

CITY           SKY/WX    TMP DP  RH WIND       PRES   REMARKS
GEORGETOWN     NOT AVBL
KINGSTREE      NOT AVBL
ORANGEBURG     PTSUNNY   70  43  37 NW5       29.83R
BARNWELL       FAIR      70  52  52 CALM      29.83S
AIKEN          FAIR      66  45  45 W3        29.87R
MANNING        FAIR      64  34  32 CALM      29.82S
COLUMBIA       CLOUDY    71  43  36 NW3       29.82S
SUMTER         PTSUNNY   69  44  41 NW6       29.82R
FLORENCE       PTSUNNY   69  42  37 N7        29.82R
MYRTLE BEACH   MOSUNNY   70  43  37 NW10      29.84R
N MYRTLE BEACH PTSUNNY   68  44  42 NW3       29.82R

$$

GAZ063-065-086>088-099>101-113>116-118-119-134>141-150-280000-
...SOUTHEAST GEORGIA...

CITY           SKY/WX    TMP DP  RH WIND       PRES   REMARKS
SAVANNAH ARPT  CLOUDY    71  50  47 N5        29.84R
HUNTER AAF     CLOUDY    68  60  76 S6        29.82R
FORT STEWART   CLOUDY    72  55  55 N3        29.81S
STATESBORO       N/A     68  53  58 CALM      29.83S
SYLVANIA       MOCLDY    67  60  78 CALM      29.83F
CLAXTON        FAIR      70  55  60 CALM      29.82F

...CSRA...CENTRAL AND FAR SOUTHEAST GEORGIA...

CITY           SKY/WX    TMP DP  RH WIND       PRES   REMARKS
THOMSON        CLOUDY    68  62  78 CALM      29.87S
AUGUSTA-BUSH   CLOUDY    70  46  42 CALM      29.82F
AUGUSTA-DANIEL CLOUDY    71  48  43 W3        29.83F
SWAINSBORO     NOT AVBL
VIDALIA        PTSUNNY   70  57  64 CALM      29.83S
EASTMAN        FAIR      70  61  71 CALM      29.87R
HAZLEHURST     FAIR      72  60  66 CALM      29.82S
ALMA           CLOUDY    70  59  68 SW5       29.83F
WAYCROSS       CLOUDY    72  65  77 CALM      29.83S
JESUP          FAIR      72  64  78 CALM      29.83F
BAXLEY         FAIR      72  63  73 S3        29.82F
BRUNSWICK      CLOUDY    70  63  78 CALM      29.85S
SAINT SIMONS   CLOUDY    69  58  67 SE3       29.84S

$$

SCZ027-028-034-036>038-045-046-048>050-GAZ119-141-280000-
...LAKE AND SUPPLEMENTAL COASTAL OBSERVATIONS...

STATION/POSITION TIME  TEMP    WIND        PRES    WAVE   SWELL
                       AIR SEA DIR/SP/G            HT/PER HT/PER/DIR
                 (UTC) (F)     (DEG/KT/KT) (MB)    (FT/S) (FT/S/D)
UPR LAKE MARION  NOT AVBL
WINYAH BAY       2200   66     190/  7     1009.0
LAKE MURRAY      2200   69     180/  5/  6 1009.5R
ACE BASIN NERRS  NOT AVBL
FORT PULASKI     2300          160/  4/  5 1010.9S
SAPELO ISLAND    2200   70     160/  4     1010.0S

$$

ANZ835-935-AMZ111-154-330-350-352-354-370-450-454-472-280000-
...C-MAN AND BUOY OBSERVATIONS...

STATION/POSITION TIME  TEMP    WIND        PRES    WAVE   SWELL
                       AIR SEA DIR/SP/G            HT/PER HT/PER/DIR
                 (UTC) (F)     (DEG/KT/KT) (MB)    (FT/S) (FT/S/D)
BUOY 41004       2250   65 71  360/  2/  4 1009.9R   3/ 5   2/ 5
BUOY 41008       2250   65 70  160/  6/  8 1011.0R   2/ 7   2/ 80/ 7
FOLLY BEACH CMAN 2300   65     160/  6/  7 1010.2S
CAPERS NEARSHORE 2208   66     130/  2/  6 1009.9R
FRIPP NEARSHORE  2200   68     160/  4/  4 1009.7


STATION/POSITION TIME  TEMP    WIND        PRES    WAVE   SWELL
                       AIR SEA DIR/SP/G            HT/PER HT/PER/DIR
                 (UTC) (F)     (DEG/KT/KT) (MB)    (FT/S) (FT/S/D)
5E ST. MARYS GA  2221      70                N/A     3/ 6
FRYING PAN BUOY  2250   65 71  220/  8/ 12 1010.3R   3/ 8   3/110/ 8
BUOY 41025       2250   63 74   10/ 16/ 21 1007.5S   4/ 8   3/100/ 8
CAPE LOOKOUT NC  2300   64     250/  5/  7 1007.9R
BUOY 41002       2250   67 71  360/ 16/ 19 1007.8R   5/ 8   3/ 10/ 8
BUOY 41010       2220   78 80  340/ 16/ 17 1008.9R
ST AUGUSTINE FL  2300   68 69   20/ 10/ 11 1010.9F


$$



USA.gov is the U.S. government's official web portal to all federal, state and local government web resources and services.